Torna al catalogo

COSMOS 755

AttivoNavigazionePO
NORAD 8072·PAYLOAD·🇷🇺 Russia

Lanciato Aug 14, 1975 da Plesetsk Cosmodrome

Loading…

Prossimi Passaggi (prossime 24 ore)

TLE

AggiornatoSource: Space-Track

Epoca: Sep 14, 2026, 06:29 UTC

1 08072U 75074A   26257.27052314  .00000065  00000-0  53477-4 0  9997
2 08072  82.9083  18.4744 0026545 256.2182 124.8800 13.74226967560747

Traccia COSMOS 755 in tempo reale con AllMySat

Download on the App Store